Year,Month,Day,Hour,Minute,Value (Times are PST for temperature in C)
2018,05,26,00,00,13.00
2018,05,26,00,01,13.00
2018,05,26,00,02,13.00
2018,05,26,00,03,13.00
2018,05,26,00,04,12.90
2018,05,26,00,05,12.90
2018,05,26,00,06,12.90
2018,05,26,00,07,12.90
2018,05,26,00,08,12.90
2018,05,26,00,09,12.90
2018,05,26,00,10,12.90
2018,05,26,00,11,12.90
2018,05,26,00,12,12.90
2018,05,26,00,13,12.90
2018,05,26,00,14,12.80
2018,05,26,00,15,12.80
2018,05,26,00,16,12.80
2018,05,26,00,17,12.80
2018,05,26,00,18,12.80
2018,05,26,00,19,12.80
2018,05,26,00,20,12.80
2018,05,26,00,21,12.80
2018,05,26,00,22,12.80
2018,05,26,00,23,12.80
2018,05,26,00,24,12.80
2018,05,26,00,25,12.70
2018,05,26,00,26,12.70
2018,05,26,00,27,12.70
2018,05,26,00,28,12.70
2018,05,26,00,29,12.70
2018,05,26,00,30,12.70
2018,05,26,00,31,12.60
2018,05,26,00,32,12.60
2018,05,26,00,33,12.60
2018,05,26,00,34,12.60
2018,05,26,00,35,12.60
2018,05,26,00,36,12.60
2018,05,26,00,37,12.60
2018,05,26,00,38,12.60
2018,05,26,00,39,12.60
2018,05,26,00,40,12.60
2018,05,26,00,41,12.60
2018,05,26,00,42,12.60
2018,05,26,00,43,12.60
2018,05,26,00,44,12.60
2018,05,26,00,45,12.50
2018,05,26,00,46,12.50
2018,05,26,00,47,12.50
2018,05,26,00,48,12.40
2018,05,26,00,49,12.40
2018,05,26,00,50,12.40
2018,05,26,00,51,12.40
2018,05,26,00,52,12.40
2018,05,26,00,53,12.40
2018,05,26,00,54,12.40
2018,05,26,00,55,12.40
2018,05,26,00,56,12.40
2018,05,26,00,57,12.40
2018,05,26,00,58,12.40
2018,05,26,00,59,12.40
2018,05,26,01,00,12.40
2018,05,26,01,01,12.40
2018,05,26,01,02,12.30
2018,05,26,01,03,12.30
2018,05,26,01,04,12.30
2018,05,26,01,05,12.30
2018,05,26,01,06,12.30
2018,05,26,01,07,12.30
2018,05,26,01,08,12.30
2018,05,26,01,09,12.30
2018,05,26,01,10,12.30
2018,05,26,01,11,12.30
2018,05,26,01,12,12.20
2018,05,26,01,13,12.20
2018,05,26,01,14,12.20
2018,05,26,01,15,12.20
2018,05,26,01,16,12.20
2018,05,26,01,17,12.20
2018,05,26,01,18,12.20
2018,05,26,01,19,12.20
2018,05,26,01,20,12.20
2018,05,26,01,21,12.20
2018,05,26,01,22,12.20
2018,05,26,01,23,12.10
2018,05,26,01,24,12.10
2018,05,26,01,25,12.10
2018,05,26,01,26,12.10
2018,05,26,01,27,12.10
2018,05,26,01,28,12.10
2018,05,26,01,29,12.10
2018,05,26,01,30,12.10
2018,05,26,01,31,12.10
2018,05,26,01,32,12.10
2018,05,26,01,33,12.10
2018,05,26,01,34,12.10
2018,05,26,01,35,12.10
2018,05,26,01,36,12.10
2018,05,26,01,37,12.00
2018,05,26,01,38,12.00
2018,05,26,01,39,12.00
2018,05,26,01,40,12.00
2018,05,26,01,41,12.00
2018,05,26,01,42,12.00
2018,05,26,01,43,12.00
2018,05,26,01,44,12.00
2018,05,26,01,45,11.90
2018,05,26,01,46,11.90
2018,05,26,01,47,11.90
2018,05,26,01,48,11.90
2018,05,26,01,49,11.90
2018,05,26,01,50,11.90
2018,05,26,01,51,11.80
2018,05,26,01,52,11.80
2018,05,26,01,53,11.80
2018,05,26,01,54,11.80
2018,05,26,01,55,11.80
2018,05,26,01,56,11.80
2018,05,26,01,57,11.80
2018,05,26,01,58,11.80
2018,05,26,01,59,11.80
2018,05,26,02,00,11.80
2018,05,26,02,01,11.80
2018,05,26,02,02,11.80
2018,05,26,02,03,11.80
2018,05,26,02,04,11.80
2018,05,26,02,05,11.80
2018,05,26,02,06,11.90
2018,05,26,02,07,11.90
2018,05,26,02,08,11.80
2018,05,26,02,09,11.80
2018,05,26,02,10,11.80
2018,05,26,02,11,11.80
2018,05,26,02,12,11.80
2018,05,26,02,13,11.80
2018,05,26,02,14,11.80
2018,05,26,02,15,11.80
2018,05,26,02,16,11.80
2018,05,26,02,17,11.80
2018,05,26,02,18,11.80
2018,05,26,02,19,11.80
2018,05,26,02,20,11.80
2018,05,26,02,21,11.80
2018,05,26,02,22,11.80
2018,05,26,02,23,11.80
2018,05,26,02,24,11.80
2018,05,26,02,25,11.80
2018,05,26,02,26,11.80
2018,05,26,02,27,11.80
2018,05,26,02,28,11.80
2018,05,26,02,29,11.80
2018,05,26,02,30,11.80
2018,05,26,02,31,11.80
2018,05,26,02,32,11.70
2018,05,26,02,33,11.70
2018,05,26,02,34,11.70
2018,05,26,02,35,11.70
2018,05,26,02,36,11.70
2018,05,26,02,37,11.70
2018,05,26,02,38,11.70
2018,05,26,02,39,11.70
2018,05,26,02,40,11.70
2018,05,26,02,41,11.70
2018,05,26,02,42,11.70
2018,05,26,02,43,11.70
2018,05,26,02,44,11.60
2018,05,26,02,45,11.60
2018,05,26,02,46,11.60
2018,05,26,02,47,11.60
2018,05,26,02,48,11.60
2018,05,26,02,49,11.60
2018,05,26,02,50,11.60
2018,05,26,02,51,11.60
2018,05,26,02,52,11.60
2018,05,26,02,53,11.60
2018,05,26,02,54,11.60
2018,05,26,02,55,11.60
2018,05,26,02,56,11.60
2018,05,26,02,57,11.60
2018,05,26,02,58,11.60
2018,05,26,02,59,11.50
2018,05,26,03,00,11.50
2018,05,26,03,01,11.50
2018,05,26,03,02,11.50
2018,05,26,03,03,11.50
2018,05,26,03,04,11.40
2018,05,26,03,05,11.40
2018,05,26,03,06,11.40
2018,05,26,03,07,11.50
2018,05,26,03,08,11.50
2018,05,26,03,09,11.50
2018,05,26,03,10,11.50
2018,05,26,03,11,11.50
2018,05,26,03,12,11.50
2018,05,26,03,13,11.40
2018,05,26,03,14,11.40
2018,05,26,03,15,11.40
2018,05,26,03,16,11.40
2018,05,26,03,17,11.40
2018,05,26,03,18,11.40
2018,05,26,03,19,11.40
2018,05,26,03,20,11.40
2018,05,26,03,21,11.40
2018,05,26,03,22,11.40
2018,05,26,03,23,11.40
2018,05,26,03,24,11.40
2018,05,26,03,25,11.40
2018,05,26,03,26,11.30
2018,05,26,03,27,11.30
2018,05,26,03,28,11.30
2018,05,26,03,29,11.30
2018,05,26,03,30,11.30
2018,05,26,03,31,11.30
2018,05,26,03,32,11.30
2018,05,26,03,33,11.30
2018,05,26,03,34,11.30
2018,05,26,03,35,11.30
2018,05,26,03,36,11.20
2018,05,26,03,37,11.20
2018,05,26,03,38,11.20
2018,05,26,03,39,11.20
2018,05,26,03,40,11.20
2018,05,26,03,41,11.30
2018,05,26,03,42,11.30
2018,05,26,03,43,11.30
2018,05,26,03,44,11.30
2018,05,26,03,45,11.30
2018,05,26,03,46,11.30
2018,05,26,03,47,11.30
2018,05,26,03,48,11.30
2018,05,26,03,49,11.30
2018,05,26,03,50,11.30
2018,05,26,03,51,11.30
2018,05,26,03,52,11.30
2018,05,26,03,53,11.30
2018,05,26,03,54,11.30
2018,05,26,03,55,11.30
2018,05,26,03,56,11.30
2018,05,26,03,57,11.30
2018,05,26,03,58,11.30
2018,05,26,03,59,11.30
2018,05,26,04,00,11.30
2018,05,26,04,01,11.30
2018,05,26,04,02,11.30
2018,05,26,04,03,11.20
2018,05,26,04,04,11.30
2018,05,26,04,05,11.20
2018,05,26,04,06,11.20
2018,05,26,04,07,11.20
2018,05,26,04,08,11.20
2018,05,26,04,09,11.20
2018,05,26,04,10,11.20
2018,05,26,04,11,11.20
2018,05,26,04,12,11.20
2018,05,26,04,13,11.20
2018,05,26,04,14,11.20
2018,05,26,04,15,11.20
2018,05,26,04,16,11.20
2018,05,26,04,17,11.20
2018,05,26,04,18,11.20
2018,05,26,04,19,11.20
2018,05,26,04,20,11.20
2018,05,26,04,21,11.20
2018,05,26,04,22,11.20
2018,05,26,04,23,11.20
2018,05,26,04,24,11.20
2018,05,26,04,25,11.20
2018,05,26,04,26,11.20
2018,05,26,04,27,11.20
2018,05,26,04,28,11.10
2018,05,26,04,29,11.10
2018,05,26,04,30,11.10
2018,05,26,04,31,11.10
2018,05,26,04,32,11.10
2018,05,26,04,33,11.10
2018,05,26,04,34,11.10
2018,05,26,04,35,11.10
2018,05,26,04,36,11.10
2018,05,26,04,37,11.10
2018,05,26,04,38,11.10
2018,05,26,04,39,11.10
2018,05,26,04,40,11.10
2018,05,26,04,41,11.10
2018,05,26,04,42,11.10
2018,05,26,04,43,11.10
2018,05,26,04,44,11.10
2018,05,26,04,45,11.10
2018,05,26,04,46,11.00
2018,05,26,04,47,11.00
2018,05,26,04,48,11.00
2018,05,26,04,49,11.00
2018,05,26,04,50,11.00
2018,05,26,04,51,11.00
2018,05,26,04,52,11.00
2018,05,26,04,53,11.00
2018,05,26,04,54,10.90
2018,05,26,04,55,10.90
2018,05,26,04,56,10.90
2018,05,26,04,57,10.90
2018,05,26,04,58,10.90
2018,05,26,04,59,10.90
2018,05,26,05,00,10.90
2018,05,26,05,01,10.90
2018,05,26,05,02,11.00
2018,05,26,05,03,11.00
2018,05,26,05,04,11.00
2018,05,26,05,05,11.00
2018,05,26,05,06,11.00
2018,05,26,05,07,11.10
2018,05,26,05,08,11.00
2018,05,26,05,09,11.10
2018,05,26,05,10,11.00
2018,05,26,05,11,11.00
2018,05,26,05,12,11.00
2018,05,26,05,13,11.00
2018,05,26,05,14,11.00
2018,05,26,05,15,11.00
2018,05,26,05,16,11.00
2018,05,26,05,17,11.00
2018,05,26,05,18,11.00
2018,05,26,05,19,11.00
2018,05,26,05,20,11.00
2018,05,26,05,21,11.00
2018,05,26,05,22,11.00
2018,05,26,05,23,11.00
2018,05,26,05,24,11.00
2018,05,26,05,25,11.10
2018,05,26,05,26,11.00
2018,05,26,05,27,11.10
2018,05,26,05,28,11.00
2018,05,26,05,29,11.00
2018,05,26,05,30,11.00
2018,05,26,05,31,11.00
2018,05,26,05,32,11.00
2018,05,26,05,33,11.00
2018,05,26,05,34,11.00
2018,05,26,05,35,11.00
2018,05,26,05,36,11.00
2018,05,26,05,37,11.00
2018,05,26,05,38,11.00
2018,05,26,05,39,11.00
2018,05,26,05,40,11.00
2018,05,26,05,41,11.00
2018,05,26,05,42,11.00
2018,05,26,05,43,11.00
2018,05,26,05,44,11.00
2018,05,26,05,45,11.00
2018,05,26,05,46,11.00
2018,05,26,05,47,11.00
2018,05,26,05,48,11.00
2018,05,26,05,49,11.00
2018,05,26,05,50,11.00
2018,05,26,05,51,11.00
2018,05,26,05,52,11.00
2018,05,26,05,53,11.00
2018,05,26,05,54,11.00
2018,05,26,05,55,11.10
2018,05,26,05,56,11.10
2018,05,26,05,57,11.10
2018,05,26,05,58,11.10
2018,05,26,05,59,11.10
2018,05,26,06,00,11.10
2018,05,26,06,01,11.10
2018,05,26,06,02,11.20
2018,05,26,06,03,11.20
2018,05,26,06,04,11.20
2018,05,26,06,05,11.20
2018,05,26,06,06,11.20
2018,05,26,06,07,11.30
2018,05,26,06,08,11.30
2018,05,26,06,09,11.30
2018,05,26,06,10,11.30
2018,05,26,06,11,11.30
2018,05,26,06,12,11.30
2018,05,26,06,13,11.40
2018,05,26,06,14,11.40
2018,05,26,06,15,11.40
2018,05,26,06,16,11.40
2018,05,26,06,17,11.40
2018,05,26,06,18,11.50
2018,05,26,06,19,11.50
2018,05,26,06,20,11.50
2018,05,26,06,21,11.60
2018,05,26,06,22,11.60
2018,05,26,06,23,11.60
2018,05,26,06,24,11.60
2018,05,26,06,25,11.60
2018,05,26,06,26,11.60
2018,05,26,06,27,11.60
2018,05,26,06,28,11.70
2018,05,26,06,29,11.70
2018,05,26,06,30,11.70
2018,05,26,06,31,11.70
2018,05,26,06,32,11.70
2018,05,26,06,33,11.70
2018,05,26,06,34,11.70
2018,05,26,06,35,11.70
2018,05,26,06,36,11.70
2018,05,26,06,37,11.70
2018,05,26,06,38,11.70
2018,05,26,06,39,11.80
2018,05,26,06,40,11.80
2018,05,26,06,41,11.80
2018,05,26,06,42,11.80
2018,05,26,06,43,11.80
2018,05,26,06,44,11.80
2018,05,26,06,45,11.80
2018,05,26,06,46,11.80
2018,05,26,06,47,11.90
2018,05,26,06,48,11.90
2018,05,26,06,49,11.90
2018,05,26,06,50,11.90
2018,05,26,06,51,11.90
2018,05,26,06,52,11.90
2018,05,26,06,53,11.90
2018,05,26,06,54,11.90
2018,05,26,06,55,11.90
2018,05,26,06,56,11.90
2018,05,26,06,57,11.90
2018,05,26,06,58,11.90
2018,05,26,06,59,11.90
2018,05,26,07,00,11.90
2018,05,26,07,01,11.90
2018,05,26,07,02,11.90
2018,05,26,07,03,11.90
2018,05,26,07,04,11.90
2018,05,26,07,05,11.90
2018,05,26,07,06,11.90
2018,05,26,07,07,11.90
2018,05,26,07,08,11.90
2018,05,26,07,09,11.90
2018,05,26,07,10,11.90
2018,05,26,07,11,11.90
2018,05,26,07,12,11.90
2018,05,26,07,13,11.90
2018,05,26,07,14,12.00
2018,05,26,07,15,12.00
2018,05,26,07,16,12.00
2018,05,26,07,17,12.00
2018,05,26,07,18,12.00
2018,05,26,07,19,12.00
2018,05,26,07,20,12.10
2018,05,26,07,21,12.10
2018,05,26,07,22,12.10
2018,05,26,07,23,12.10
2018,05,26,07,24,12.10
2018,05,26,07,25,12.10
2018,05,26,07,26,12.10
2018,05,26,07,27,12.10
2018,05,26,07,28,12.10
2018,05,26,07,29,12.20
2018,05,26,07,30,12.20
2018,05,26,07,31,12.20
2018,05,26,07,32,12.20
2018,05,26,07,33,12.20
2018,05,26,07,34,12.20
2018,05,26,07,35,12.20
2018,05,26,07,36,12.20
2018,05,26,07,37,12.30
2018,05,26,07,38,12.30
2018,05,26,07,39,12.30
2018,05,26,07,40,12.30
2018,05,26,07,41,12.40
2018,05,26,07,42,12.40
2018,05,26,07,43,12.40
2018,05,26,07,44,12.50
2018,05,26,07,45,12.50
2018,05,26,07,46,12.50
2018,05,26,07,47,12.50
2018,05,26,07,48,12.60
2018,05,26,07,49,12.60
2018,05,26,07,50,12.60
2018,05,26,07,51,12.60
2018,05,26,07,52,12.70
2018,05,26,07,53,12.70
2018,05,26,07,54,12.70
2018,05,26,07,55,12.70
2018,05,26,07,56,12.80
2018,05,26,07,57,12.80
2018,05,26,07,58,12.80
2018,05,26,07,59,12.80
2018,05,26,08,00,12.80
2018,05,26,08,01,12.80
2018,05,26,08,02,12.80
2018,05,26,08,03,12.90
2018,05,26,08,04,12.90
2018,05,26,08,05,12.90
2018,05,26,08,06,12.90
2018,05,26,08,07,12.90
2018,05,26,08,08,12.90
2018,05,26,08,09,12.90
2018,05,26,08,10,12.90
2018,05,26,08,11,13.00
2018,05,26,08,12,13.00
2018,05,26,08,13,13.10
2018,05,26,08,14,13.10
2018,05,26,08,15,13.10
2018,05,26,08,16,13.20
2018,05,26,08,17,13.20
2018,05,26,08,18,13.20
2018,05,26,08,19,13.20
2018,05,26,08,20,13.20
2018,05,26,08,21,13.20
2018,05,26,08,22,13.20
2018,05,26,08,23,13.20
2018,05,26,08,24,13.30
2018,05,26,08,25,13.30
2018,05,26,08,26,13.30
2018,05,26,08,27,13.30
2018,05,26,08,28,13.30
2018,05,26,08,29,13.30
2018,05,26,08,30,13.30
2018,05,26,08,31,13.30
2018,05,26,08,32,13.30
2018,05,26,08,33,13.30
2018,05,26,08,34,13.30
2018,05,26,08,35,13.30
2018,05,26,08,36,13.30
2018,05,26,08,37,13.30
2018,05,26,08,38,13.30
2018,05,26,08,39,13.30
2018,05,26,08,40,13.40
2018,05,26,08,41,13.40
2018,05,26,08,42,13.40
2018,05,26,08,43,13.40
2018,05,26,08,44,13.50
2018,05,26,08,45,13.50
2018,05,26,08,46,13.60
2018,05,26,08,47,13.60
2018,05,26,08,48,13.60
2018,05,26,08,49,13.70
2018,05,26,08,50,13.70
2018,05,26,08,51,13.60
2018,05,26,08,52,13.60
2018,05,26,08,53,13.70
2018,05,26,08,54,13.70
2018,05,26,08,55,13.70
2018,05,26,08,56,13.80
2018,05,26,08,57,13.80
2018,05,26,08,58,13.80
2018,05,26,08,59,13.90
2018,05,26,09,00,13.90
2018,05,26,09,01,14.00
2018,05,26,09,02,14.00
2018,05,26,09,03,14.10
2018,05,26,09,04,14.10
2018,05,26,09,05,14.10
2018,05,26,09,06,14.10
2018,05,26,09,07,14.20
2018,05,26,09,08,14.20
2018,05,26,09,09,14.30
2018,05,26,09,10,14.30
2018,05,26,09,11,14.30
2018,05,26,09,12,14.30
2018,05,26,09,13,14.30
2018,05,26,09,14,14.30
2018,05,26,09,15,14.40
2018,05,26,09,16,14.40
2018,05,26,09,17,14.40
2018,05,26,09,18,14.40
2018,05,26,09,19,14.40
2018,05,26,09,20,14.50
2018,05,26,09,21,14.50
2018,05,26,09,22,14.50
2018,05,26,09,23,14.50
2018,05,26,09,24,14.60
2018,05,26,09,25,14.60
2018,05,26,09,26,14.70
2018,05,26,09,27,14.70
2018,05,26,09,28,14.80
2018,05,26,09,29,14.80
2018,05,26,09,30,14.90
2018,05,26,09,31,15.00
2018,05,26,09,32,15.00
2018,05,26,09,33,15.10
2018,05,26,09,34,15.20
2018,05,26,09,35,15.20
2018,05,26,09,36,15.20
2018,05,26,09,37,15.20
2018,05,26,09,38,15.20
2018,05,26,09,39,15.20
2018,05,26,09,40,15.30
2018,05,26,09,41,15.30
2018,05,26,09,42,15.40
2018,05,26,09,43,15.40
2018,05,26,09,44,15.50
2018,05,26,09,45,15.60
2018,05,26,09,46,15.60
2018,05,26,09,47,15.60
2018,05,26,09,48,15.60
2018,05,26,09,49,15.60
2018,05,26,09,50,15.60
2018,05,26,09,51,15.60
2018,05,26,09,52,15.60
2018,05,26,09,53,15.60
2018,05,26,09,54,15.70
2018,05,26,09,55,15.70
2018,05,26,09,56,15.70
2018,05,26,09,57,15.70
2018,05,26,09,58,15.70
2018,05,26,09,59,15.70
2018,05,26,10,00,15.70
2018,05,26,10,01,15.80
2018,05,26,10,02,15.80
2018,05,26,10,03,15.80
2018,05,26,10,04,15.70
2018,05,26,10,05,15.70
2018,05,26,10,06,15.70
2018,05,26,10,07,15.70
2018,05,26,10,08,15.80
2018,05,26,10,09,15.80
2018,05,26,10,10,15.90
2018,05,26,10,11,15.90
2018,05,26,10,12,15.90
2018,05,26,10,13,15.80
2018,05,26,10,14,15.90
2018,05,26,10,15,15.90
2018,05,26,10,16,15.80
2018,05,26,10,17,15.70
2018,05,26,10,18,15.60
2018,05,26,10,19,15.60
2018,05,26,10,20,15.60
2018,05,26,10,21,15.60
2018,05,26,10,22,15.60
2018,05,26,10,23,15.60
2018,05,26,10,24,15.70
2018,05,26,10,25,15.80
2018,05,26,10,26,15.90
2018,05,26,10,27,16.00
2018,05,26,10,28,16.10
2018,05,26,10,29,16.20
2018,05,26,10,30,16.30
2018,05,26,10,31,16.20
2018,05,26,10,32,16.10
2018,05,26,10,33,16.10
2018,05,26,10,34,16.00
2018,05,26,10,35,15.90
2018,05,26,10,36,15.90
2018,05,26,10,37,15.90
2018,05,26,10,38,15.80
2018,05,26,10,39,15.70
2018,05,26,10,40,15.70
2018,05,26,10,41,15.70
2018,05,26,10,42,15.80
2018,05,26,10,43,15.80
2018,05,26,10,44,15.90
2018,05,26,10,45,15.90
2018,05,26,10,46,16.00
2018,05,26,10,47,16.00
2018,05,26,10,48,16.00
2018,05,26,10,49,16.10
2018,05,26,10,50,16.10
2018,05,26,10,51,16.10
2018,05,26,10,52,16.20
2018,05,26,10,53,16.20
2018,05,26,10,54,16.20
2018,05,26,10,55,16.20
2018,05,26,10,56,16.20
2018,05,26,10,57,16.30
2018,05,26,10,58,16.20
2018,05,26,10,59,16.30
2018,05,26,11,00,16.20
2018,05,26,11,01,16.20
2018,05,26,11,02,16.20
2018,05,26,11,03,16.20
2018,05,26,11,04,16.20
2018,05,26,11,05,16.20
2018,05,26,11,06,16.20
2018,05,26,11,07,16.20
2018,05,26,11,08,16.20
2018,05,26,11,09,16.30
2018,05,26,11,10,16.30
2018,05,26,11,11,16.30
2018,05,26,11,12,16.30
2018,05,26,11,13,16.30
2018,05,26,11,14,16.30
2018,05,26,11,15,16.20
2018,05,26,11,16,16.20
2018,05,26,11,17,16.20
2018,05,26,11,18,16.30
2018,05,26,11,19,16.30
2018,05,26,11,20,16.20
2018,05,26,11,21,16.10
2018,05,26,11,22,16.00
2018,05,26,11,23,16.00
2018,05,26,11,24,16.00
2018,05,26,11,25,16.00
2018,05,26,11,26,16.00
2018,05,26,11,27,16.00
2018,05,26,11,28,16.00
2018,05,26,11,29,16.00
2018,05,26,11,30,16.10
2018,05,26,11,31,16.20
2018,05,26,11,32,16.20
2018,05,26,11,33,16.20
2018,05,26,11,34,16.30
2018,05,26,11,35,16.40
2018,05,26,11,36,16.50
2018,05,26,11,37,16.60
2018,05,26,11,38,16.80
2018,05,26,11,39,16.90
2018,05,26,11,40,17.00
2018,05,26,11,41,17.10
2018,05,26,11,42,17.20
2018,05,26,11,43,17.30
2018,05,26,11,44,17.30
2018,05,26,11,45,17.30
2018,05,26,11,46,17.30
2018,05,26,11,47,17.20
2018,05,26,11,48,17.20
2018,05,26,11,49,17.20
2018,05,26,11,50,17.20
2018,05,26,11,51,17.20
2018,05,26,11,52,17.20
2018,05,26,11,53,17.10
2018,05,26,11,54,17.10
2018,05,26,11,55,17.10
2018,05,26,11,56,17.10
2018,05,26,11,57,17.20
2018,05,26,11,58,17.20
2018,05,26,11,59,17.20
2018,05,26,12,00,17.20
2018,05,26,12,01,17.20
2018,05,26,12,02,17.20
2018,05,26,12,03,17.20
2018,05,26,12,04,17.20
2018,05,26,12,05,17.20
2018,05,26,12,06,17.20
2018,05,26,12,07,17.20
2018,05,26,12,08,17.20
2018,05,26,12,09,17.20
2018,05,26,12,10,17.30
2018,05,26,12,11,17.40
2018,05,26,12,12,17.30
2018,05,26,12,13,17.10
2018,05,26,12,14,17.00
2018,05,26,12,15,17.00
2018,05,26,12,16,17.10
2018,05,26,12,17,17.10
2018,05,26,12,18,17.20
2018,05,26,12,19,17.20
2018,05,26,12,20,17.30
2018,05,26,12,21,17.30
2018,05,26,12,22,17.20
2018,05,26,12,23,17.10
2018,05,26,12,24,16.90
2018,05,26,12,25,16.80
2018,05,26,12,26,16.80
2018,05,26,12,27,16.70
2018,05,26,12,28,16.70
2018,05,26,12,29,16.70
2018,05,26,12,30,16.70
2018,05,26,12,31,16.70
2018,05,26,12,32,16.70
2018,05,26,12,33,16.80
2018,05,26,12,34,16.90
2018,05,26,12,35,16.90
2018,05,26,12,36,17.00
2018,05,26,12,37,17.10
2018,05,26,12,38,17.20
2018,05,26,12,39,17.30
2018,05,26,12,40,17.20
2018,05,26,12,41,17.20
2018,05,26,12,42,17.10
2018,05,26,12,43,17.10
2018,05,26,12,44,17.20
2018,05,26,12,45,17.30
2018,05,26,12,46,17.40
2018,05,26,12,47,17.50
2018,05,26,12,48,17.60
2018,05,26,12,49,17.70
2018,05,26,12,50,17.70
2018,05,26,12,51,17.60
2018,05,26,12,52,17.60
2018,05,26,12,53,17.50
2018,05,26,12,54,17.40
2018,05,26,12,55,17.40
2018,05,26,12,56,17.30
2018,05,26,12,57,17.30
2018,05,26,12,58,17.40
2018,05,26,12,59,17.50
2018,05,26,13,00,17.60
2018,05,26,13,01,17.60
2018,05,26,13,02,17.50
2018,05,26,13,03,17.50
2018,05,26,13,04,17.40
2018,05,26,13,05,17.40
2018,05,26,13,06,17.30
2018,05,26,13,07,17.30
2018,05,26,13,08,17.30
2018,05,26,13,09,17.30
2018,05,26,13,10,17.30
2018,05,26,13,11,17.20
2018,05,26,13,12,17.20
2018,05,26,13,13,17.20
2018,05,26,13,14,17.30
2018,05,26,13,15,17.30
2018,05,26,13,16,17.30
2018,05,26,13,17,17.40
2018,05,26,13,18,17.30
2018,05,26,13,19,17.20
2018,05,26,13,20,17.20
2018,05,26,13,21,17.10
2018,05,26,13,22,16.90
2018,05,26,13,23,16.90
2018,05,26,13,24,16.90
2018,05,26,13,25,16.90
2018,05,26,13,26,16.90
2018,05,26,13,27,16.80
2018,05,26,13,28,16.80
2018,05,26,13,29,16.80
2018,05,26,13,30,16.80
2018,05,26,13,31,16.80
2018,05,26,13,32,16.90
2018,05,26,13,33,16.90
2018,05,26,13,34,17.00
2018,05,26,13,35,17.10
2018,05,26,13,36,17.10
2018,05,26,13,37,17.20
2018,05,26,13,38,17.20
2018,05,26,13,39,17.20
2018,05,26,13,40,17.20
2018,05,26,13,41,17.30
2018,05,26,13,42,17.40
2018,05,26,13,43,17.40
2018,05,26,13,44,17.40
2018,05,26,13,45,17.40
2018,05,26,13,46,17.30
2018,05,26,13,47,17.20
2018,05,26,13,48,17.20
2018,05,26,13,49,17.20
2018,05,26,13,50,17.10
2018,05,26,13,51,17.00
2018,05,26,13,52,17.00
2018,05,26,13,53,17.00
2018,05,26,13,54,17.00
2018,05,26,13,55,17.00
2018,05,26,13,56,17.00
2018,05,26,13,57,16.90
2018,05,26,13,58,16.90
2018,05,26,13,59,16.90
2018,05,26,14,00,16.90
2018,05,26,14,01,17.00
2018,05,26,14,02,17.00
2018,05,26,14,03,17.00
2018,05,26,14,04,17.00
2018,05,26,14,05,17.00
2018,05,26,14,06,17.00
2018,05,26,14,07,17.10
2018,05,26,14,08,17.20
2018,05,26,14,09,17.30
2018,05,26,14,10,17.30
2018,05,26,14,11,17.30
2018,05,26,14,12,17.40
2018,05,26,14,13,17.40
2018,05,26,14,14,17.40
2018,05,26,14,15,17.30
2018,05,26,14,16,17.30
2018,05,26,14,17,17.30
2018,05,26,14,18,17.30
2018,05,26,14,19,17.20
2018,05,26,14,20,17.20
2018,05,26,14,21,17.10
2018,05,26,14,22,17.10
2018,05,26,14,23,17.10
2018,05,26,14,24,17.10
2018,05,26,14,25,17.10
2018,05,26,14,26,17.00
2018,05,26,14,27,17.00
2018,05,26,14,28,16.90
2018,05,26,14,29,16.90
2018,05,26,14,30,17.00
2018,05,26,14,31,17.00
2018,05,26,14,32,17.10
2018,05,26,14,33,17.10
2018,05,26,14,34,17.20
2018,05,26,14,35,17.20
2018,05,26,14,36,17.30
2018,05,26,14,37,17.30
2018,05,26,14,38,17.30
2018,05,26,14,39,17.30
2018,05,26,14,40,17.20
2018,05,26,14,41,17.10
2018,05,26,14,42,17.10
2018,05,26,14,43,17.10
2018,05,26,14,44,17.00
2018,05,26,14,45,17.00
2018,05,26,14,46,16.90
2018,05,26,14,47,17.00
2018,05,26,14,48,17.00
2018,05,26,14,49,17.10
2018,05,26,14,50,17.10
2018,05,26,14,51,17.20
2018,05,26,14,52,17.30
2018,05,26,14,53,17.40
2018,05,26,14,54,17.50
2018,05,26,14,55,17.50
2018,05,26,14,56,17.50
2018,05,26,14,57,17.50
2018,05,26,14,58,17.50
2018,05,26,14,59,17.50
2018,05,26,15,00,17.50
2018,05,26,15,01,17.40
2018,05,26,15,02,17.30
2018,05,26,15,03,17.20
2018,05,26,15,04,17.20
2018,05,26,15,05,17.10
2018,05,26,15,06,17.10
2018,05,26,15,07,17.20
2018,05,26,15,08,17.10
2018,05,26,15,09,17.10
2018,05,26,15,10,17.20
2018,05,26,15,11,17.20
2018,05,26,15,12,17.30
2018,05,26,15,13,17.30
2018,05,26,15,14,17.30
2018,05,26,15,15,17.20
2018,05,26,15,16,17.20
2018,05,26,15,17,17.20
2018,05,26,15,18,17.20
2018,05,26,15,19,17.10
2018,05,26,15,20,17.00
2018,05,26,15,21,17.00
2018,05,26,15,22,17.00
2018,05,26,15,23,17.10
2018,05,26,15,24,17.10
2018,05,26,15,25,17.10
2018,05,26,15,26,17.10
2018,05,26,15,27,17.10
2018,05,26,15,28,17.10
2018,05,26,15,29,17.10
2018,05,26,15,30,17.10
2018,05,26,15,31,17.00
2018,05,26,15,32,16.80
2018,05,26,15,33,16.70
2018,05,26,15,34,16.60
2018,05,26,15,35,16.50
2018,05,26,15,36,16.40
2018,05,26,15,37,16.40
2018,05,26,15,38,16.40
2018,05,26,15,39,16.30
2018,05,26,15,40,16.30
2018,05,26,15,41,16.30
2018,05,26,15,42,16.30
2018,05,26,15,43,16.20
2018,05,26,15,44,16.20
2018,05,26,15,45,16.10
2018,05,26,15,46,16.10
2018,05,26,15,47,16.00
2018,05,26,15,48,15.90
2018,05,26,15,49,15.90
2018,05,26,15,50,15.80
2018,05,26,15,51,15.70
2018,05,26,15,52,15.60
2018,05,26,15,53,15.50
2018,05,26,15,54,15.50
2018,05,26,15,55,15.60
2018,05,26,15,56,15.60
2018,05,26,15,57,15.70
2018,05,26,15,58,15.70
2018,05,26,15,59,15.60
2018,05,26,16,00,15.60
2018,05,26,16,01,15.60
2018,05,26,16,02,15.60
2018,05,26,16,03,15.70
2018,05,26,16,04,15.70
2018,05,26,16,05,15.70
2018,05,26,16,06,15.80
2018,05,26,16,07,15.90
2018,05,26,16,08,16.00
2018,05,26,16,09,16.10
2018,05,26,16,10,16.10
2018,05,26,16,11,16.10
2018,05,26,16,12,16.00
2018,05,26,16,13,16.00
2018,05,26,16,14,16.00
2018,05,26,16,15,15.90
2018,05,26,16,16,15.90
2018,05,26,16,17,15.90
2018,05,26,16,18,15.90
2018,05,26,16,19,15.90
2018,05,26,16,20,15.90
2018,05,26,16,21,15.90
2018,05,26,16,22,15.90
2018,05,26,16,23,16.00
2018,05,26,16,24,16.00
2018,05,26,16,25,16.10
2018,05,26,16,26,16.20
2018,05,26,16,27,16.30
2018,05,26,16,28,16.30
2018,05,26,16,29,16.40
2018,05,26,16,30,16.50
2018,05,26,16,31,16.50
2018,05,26,16,32,16.60
2018,05,26,16,33,16.70
2018,05,26,16,34,16.70
2018,05,26,16,35,16.80
2018,05,26,16,36,16.90
2018,05,26,16,37,16.90
2018,05,26,16,38,17.00
2018,05,26,16,39,17.10
2018,05,26,16,40,17.10
2018,05,26,16,41,17.20
2018,05,26,16,42,17.30
2018,05,26,16,43,17.30
2018,05,26,16,44,17.30
2018,05,26,16,45,17.40
2018,05,26,16,46,17.40
2018,05,26,16,47,17.40
2018,05,26,16,48,17.50
2018,05,26,16,49,17.50
2018,05,26,16,50,17.60
2018,05,26,16,51,17.60
2018,05,26,16,52,17.60
2018,05,26,16,53,17.70
2018,05,26,16,54,17.70
2018,05,26,16,55,17.80
2018,05,26,16,56,17.80
2018,05,26,16,57,17.90
2018,05,26,16,58,17.90
2018,05,26,16,59,17.90
2018,05,26,17,00,17.90
2018,05,26,17,01,17.90
2018,05,26,17,02,17.90
2018,05,26,17,03,17.90
2018,05,26,17,04,17.90
2018,05,26,17,05,17.90
2018,05,26,17,06,17.90
2018,05,26,17,07,18.00
2018,05,26,17,08,18.00
2018,05,26,17,09,18.00
2018,05,26,17,10,18.00
2018,05,26,17,11,18.00
2018,05,26,17,12,17.90
2018,05,26,17,13,17.90
2018,05,26,17,14,17.90
2018,05,26,17,15,17.80
2018,05,26,17,16,17.80
2018,05,26,17,17,17.90
2018,05,26,17,18,17.80
2018,05,26,17,19,17.80